Weather in Pasanauri

Georgia     42°21′05″N   44°41′20″E
temp.,
°C
wind,
m/s
gust,
m/s
humid.,
%
clouds,
%
prec.,
mm/h
press.,
hPa
HPBL,
m
17 april, sat
sat1701:00+4nne347943 0.0 102465
04:00+3n358110 0.0 102477
07:00+4n3478100 0.0 102376
10:00+13s1150100 0.0 1020898
13:00+16ssw344398 0.0 10191614
16:00+16wsw244198 0.1 10172036
19:00+13ssw1257100 0.1 101830
22:00+10nne2271100 0.1 102065
18 april, sun
sun1801:00+9nne2384100 0.8 1021125
04:00+8ne2285100 1.0 102066
07:00+8n1186100 0.2 102057
10:00+9nw018695 0.7 1020139
13:00+15ssw235899 0.4 10171227
16:00+16ssw3655100 1.8 10151694
19:00+11ssw3583100 1.9 1017247
22:00+8nnw1196100 2.0 102013
19 april, mon
mon1901:00+7n2292100 0.0 101935
04:00+6nnw2190100 0.0 101918
07:00+6n228760 0.0 102048
10:00+13sw2263100 0.0 1018864
13:00+15wsw3752100 0.3 10171610
16:00+16wsw495098 0.4 10161866
19:00+14ssw2467100 0.1 101692
22:00+9nne2285100 0.1 101829
20 april, tue
tue2001:00+8nne3384100 0.0 101850
04:00+9nne3580100 0.0 101677
07:00+9nne3480100 0.0 101676
10:00+17se1251100 0.0 1012749
13:00+18ssw585099 0.1 10131397
16:00+20sse2244100 0.1 1009947
19:00+11nne3687100 17.6 1013371
22:00+9nne229279 18.5 101339
21 april, wed
wed2101:00+10nnw2290100 1.5 101453
04:00+9wsw1193100 2.4 101418
07:00+8w119887 0.6 101458
10:00+11sw218892 0.8 1014370
13:00+15s336610 0.9 1013731
16:00+16s335967 3.3 1011931
19:00+11ssw349298 3.3 1014301
22:00+9sw2299100 7.8 1017223